Simultaneous Nadir Overpasses (SNOs) Predictions

Prediction of SNOs between LANDSAT-8 and METOP-B Satellite Orbit:

Table of predicted SNOs for the next 14.0 days since TLE Epoch: 10/31/2015
Index Date (LANDSAT-8) Time (LANDSAT-8) Lat,Lon (LANDSAT-8) SZA (LANDSAT-8 ) Date (METOP-B) Time (METOP-B) Lat,Lon (METOP-B) SZA (METOP-B ) Distance(km) Time Diff (sec)
1 10/31/2015 23:29:26 81.15,-131.93 97.83 10/31/2015 23:28:40 81.16,-131.88 97.82 0.91 46
2 11/01/2015 00:18:52 -81.17, 36.01 82.12 11/01/2015 00:19:19 -81.17, 36.05 82.10 0.76 27
3 11/03/2015 19:03:41 81.16, -65.33 98.74 11/03/2015 19:03:00 81.16, -65.27 98.73 1.02 41
4 11/03/2015 19:53:07 -81.18, 102.63 81.20 11/03/2015 19:53:39 -81.18, 102.69 81.18 0.94 32
5 11/06/2015 14:37:56 81.17, 1.18 99.61 11/06/2015 14:37:20 81.17, 1.30 99.60 1.94 36
6
